Year,Month,Day,Hour,Minute,Value (Times are PST for temperature in C)
2022,04,27,00,00,2.70
2022,04,27,00,01,2.70
2022,04,27,00,02,2.70
2022,04,27,00,03,2.70
2022,04,27,00,04,2.70
2022,04,27,00,05,2.70
2022,04,27,00,06,2.70
2022,04,27,00,07,2.70
2022,04,27,00,08,2.70
2022,04,27,00,09,2.70
2022,04,27,00,10,2.60
2022,04,27,00,11,2.60
2022,04,27,00,12,2.60
2022,04,27,00,13,2.60
2022,04,27,00,14,2.60
2022,04,27,00,15,2.60
2022,04,27,00,16,2.60
2022,04,27,00,17,2.60
2022,04,27,00,18,2.60
2022,04,27,00,19,2.50
2022,04,27,00,20,2.50
2022,04,27,00,21,2.50
2022,04,27,00,22,2.50
2022,04,27,00,23,2.40
2022,04,27,00,24,2.40
2022,04,27,00,25,2.40
2022,04,27,00,26,2.40
2022,04,27,00,27,2.40
2022,04,27,00,28,2.40
2022,04,27,00,29,2.40
2022,04,27,00,30,2.40
2022,04,27,00,31,2.30
2022,04,27,00,32,2.30
2022,04,27,00,33,2.30
2022,04,27,00,34,2.30
2022,04,27,00,35,2.30
2022,04,27,00,36,2.30
2022,04,27,00,37,2.30
2022,04,27,00,38,2.30
2022,04,27,00,39,2.30
2022,04,27,00,40,2.20
2022,04,27,00,41,2.20
2022,04,27,00,42,2.20
2022,04,27,00,43,2.20
2022,04,27,00,44,2.20
2022,04,27,00,45,2.20
2022,04,27,00,46,2.20
2022,04,27,00,47,2.20
2022,04,27,00,48,2.20
2022,04,27,00,49,2.20
2022,04,27,00,50,2.20
2022,04,27,00,51,2.20
2022,04,27,00,52,2.20
2022,04,27,00,53,2.20
2022,04,27,00,54,2.20
2022,04,27,00,55,2.20
2022,04,27,00,56,2.20
2022,04,27,00,57,2.20
2022,04,27,00,58,2.20
2022,04,27,00,59,2.20
2022,04,27,01,00,2.10
2022,04,27,01,01,2.10
2022,04,27,01,02,2.10
2022,04,27,01,03,2.10
2022,04,27,01,04,2.10
2022,04,27,01,05,2.10
2022,04,27,01,06,2.10
2022,04,27,01,07,2.10
2022,04,27,01,08,2.00
2022,04,27,01,09,2.10
2022,04,27,01,10,2.10
2022,04,27,01,11,2.00
2022,04,27,01,12,2.00
2022,04,27,01,13,2.00
2022,04,27,01,14,2.00
2022,04,27,01,15,2.00
2022,04,27,01,16,2.00
2022,04,27,01,17,2.00
2022,04,27,01,18,2.00
2022,04,27,01,19,2.00
2022,04,27,01,20,2.00
2022,04,27,01,21,2.00
2022,04,27,01,22,2.00
2022,04,27,01,23,2.00
2022,04,27,01,24,2.00
2022,04,27,01,25,2.00
2022,04,27,01,26,2.00
2022,04,27,01,27,2.00
2022,04,27,01,28,2.00
2022,04,27,01,29,2.00
2022,04,27,01,30,2.00
2022,04,27,01,31,2.00
2022,04,27,01,32,2.00
2022,04,27,01,33,2.00
2022,04,27,01,34,2.00
2022,04,27,01,35,2.00
2022,04,27,01,36,2.00
2022,04,27,01,37,2.00
2022,04,27,01,38,2.00
2022,04,27,01,39,2.00
2022,04,27,01,40,2.00
2022,04,27,01,41,2.00
2022,04,27,01,42,2.00
2022,04,27,01,43,1.90
2022,04,27,01,44,1.90
2022,04,27,01,45,2.00
2022,04,27,01,46,1.90
2022,04,27,01,47,1.90
2022,04,27,01,48,1.90
2022,04,27,01,49,1.90
2022,04,27,01,50,1.90
2022,04,27,01,51,1.90
2022,04,27,01,52,1.90
2022,04,27,01,53,1.90
2022,04,27,01,54,1.90
2022,04,27,01,55,1.90
2022,04,27,01,56,1.80
2022,04,27,01,57,1.80
2022,04,27,01,58,1.80
2022,04,27,01,59,1.80
2022,04,27,02,00,1.80
2022,04,27,02,01,1.80
2022,04,27,02,02,1.80
2022,04,27,02,03,1.80
2022,04,27,02,04,1.80
2022,04,27,02,05,1.80
2022,04,27,02,06,1.70
2022,04,27,02,07,1.70
2022,04,27,02,08,1.70
2022,04,27,02,09,1.70
2022,04,27,02,10,1.70
2022,04,27,02,11,1.70
2022,04,27,02,12,1.70
2022,04,27,02,13,1.70
2022,04,27,02,14,1.70
2022,04,27,02,15,1.70
2022,04,27,02,16,1.70
2022,04,27,02,17,1.60
2022,04,27,02,18,1.70
2022,04,27,02,19,1.60
2022,04,27,02,20,1.60
2022,04,27,02,21,1.60
2022,04,27,02,22,1.60
2022,04,27,02,23,1.60
2022,04,27,02,24,1.60
2022,04,27,02,25,1.60
2022,04,27,02,26,1.60
2022,04,27,02,27,1.60
2022,04,27,02,28,1.60
2022,04,27,02,29,1.60
2022,04,27,02,30,1.60
2022,04,27,02,31,1.60
2022,04,27,02,32,1.60
2022,04,27,02,33,1.60
2022,04,27,02,34,1.60
2022,04,27,02,35,1.60
2022,04,27,02,36,1.60
2022,04,27,02,37,1.60
2022,04,27,02,38,1.60
2022,04,27,02,39,1.60
2022,04,27,02,40,1.60
2022,04,27,02,41,1.60
2022,04,27,02,42,1.60
2022,04,27,02,43,1.60
2022,04,27,02,44,1.60
2022,04,27,02,45,1.60
2022,04,27,02,46,1.60
2022,04,27,02,47,1.60
2022,04,27,02,48,1.60
2022,04,27,02,49,1.50
2022,04,27,02,50,1.50
2022,04,27,02,51,1.50
2022,04,27,02,52,1.50
2022,04,27,02,53,1.40
2022,04,27,02,54,1.40
2022,04,27,02,55,1.40
2022,04,27,02,56,1.40
2022,04,27,02,57,1.40
2022,04,27,02,58,1.40
2022,04,27,02,59,1.40
2022,04,27,03,00,1.40
2022,04,27,03,01,1.40
2022,04,27,03,02,1.40
2022,04,27,03,03,1.40
2022,04,27,03,04,1.40
2022,04,27,03,05,1.40
2022,04,27,03,06,1.40
2022,04,27,03,07,1.40
2022,04,27,03,08,1.40
2022,04,27,03,09,1.40
2022,04,27,03,10,1.30
2022,04,27,03,11,1.30
2022,04,27,03,12,1.30
2022,04,27,03,13,1.30
2022,04,27,03,14,1.30
2022,04,27,03,15,1.30
2022,04,27,03,16,1.40
2022,04,27,03,17,1.40
2022,04,27,03,18,1.40
2022,04,27,03,19,1.40
2022,04,27,03,20,1.40
2022,04,27,03,21,1.40
2022,04,27,03,22,1.40
2022,04,27,03,23,1.30
2022,04,27,03,24,1.30
2022,04,27,03,25,1.30
2022,04,27,03,26,1.30
2022,04,27,03,27,1.30
2022,04,27,03,28,1.30
2022,04,27,03,29,1.30
2022,04,27,03,30,1.30
2022,04,27,03,31,1.30
2022,04,27,03,32,1.20
2022,04,27,03,33,1.20
2022,04,27,03,34,1.20
2022,04,27,03,35,1.20
2022,04,27,03,36,1.20
2022,04,27,03,37,1.20
2022,04,27,03,38,1.20
2022,04,27,03,39,1.20
2022,04,27,03,40,1.20
2022,04,27,03,41,1.20
2022,04,27,03,42,1.20
2022,04,27,03,43,1.20
2022,04,27,03,44,1.20
2022,04,27,03,45,1.20
2022,04,27,03,46,1.20
2022,04,27,03,47,1.20
2022,04,27,03,48,1.20
2022,04,27,03,49,1.20
2022,04,27,03,50,1.20
2022,04,27,03,51,1.20
2022,04,27,03,52,1.20
2022,04,27,03,53,1.20
2022,04,27,03,54,1.20
2022,04,27,03,55,1.20
2022,04,27,03,56,1.20
2022,04,27,03,57,1.20
2022,04,27,03,58,1.20
2022,04,27,03,59,1.20
2022,04,27,04,00,1.20
2022,04,27,04,01,1.20
2022,04,27,04,02,1.20
2022,04,27,04,03,1.20
2022,04,27,04,04,1.20
2022,04,27,04,05,1.20
2022,04,27,04,06,1.20
2022,04,27,04,07,1.20
2022,04,27,04,08,1.20
2022,04,27,04,09,1.20
2022,04,27,04,10,1.20
2022,04,27,04,11,1.20
2022,04,27,04,12,1.20
2022,04,27,04,13,1.20
2022,04,27,04,14,1.20
2022,04,27,04,15,1.20
2022,04,27,04,16,1.20
2022,04,27,04,17,1.20
2022,04,27,04,18,1.20
2022,04,27,04,19,1.20
2022,04,27,04,20,1.20
2022,04,27,04,21,1.20
2022,04,27,04,22,1.20
2022,04,27,04,23,1.20
2022,04,27,04,24,1.20
2022,04,27,04,25,1.20
2022,04,27,04,26,1.20
2022,04,27,04,27,1.20
2022,04,27,04,28,1.20
2022,04,27,04,29,1.20
2022,04,27,04,30,1.20
2022,04,27,04,31,1.20
2022,04,27,04,32,1.20
2022,04,27,04,33,1.30
2022,04,27,04,34,1.30
2022,04,27,04,35,1.30
2022,04,27,04,36,1.30
2022,04,27,04,37,1.30
2022,04,27,04,38,1.30
2022,04,27,04,39,1.30
2022,04,27,04,40,1.30
2022,04,27,04,41,1.30
2022,04,27,04,42,1.40
2022,04,27,04,43,1.40
2022,04,27,04,44,1.40
2022,04,27,04,45,1.40
2022,04,27,04,46,1.40
2022,04,27,04,47,1.40
2022,04,27,04,48,1.40
2022,04,27,04,49,1.40
2022,04,27,04,50,1.40
2022,04,27,04,51,1.40
2022,04,27,04,52,1.40
2022,04,27,04,53,1.40
2022,04,27,04,54,1.40
2022,04,27,04,55,1.40
2022,04,27,04,56,1.40
2022,04,27,04,57,1.40
2022,04,27,04,58,1.50
2022,04,27,04,59,1.50
2022,04,27,05,00,1.60
2022,04,27,05,01,1.60
2022,04,27,05,02,1.60
2022,04,27,05,03,1.60
2022,04,27,05,04,1.60
2022,04,27,05,05,1.60
2022,04,27,05,06,1.60
2022,04,27,05,07,1.60
2022,04,27,05,08,1.60
2022,04,27,05,09,1.60
2022,04,27,05,10,1.60
2022,04,27,05,11,1.60
2022,04,27,05,12,1.60
2022,04,27,05,13,1.60
2022,04,27,05,14,1.60
2022,04,27,05,15,1.60
2022,04,27,05,16,1.60
2022,04,27,05,17,1.60
2022,04,27,05,18,1.60
2022,04,27,05,19,1.60
2022,04,27,05,20,1.60
2022,04,27,05,21,1.70
2022,04,27,05,22,1.60
2022,04,27,05,23,1.70
2022,04,27,05,24,1.60
2022,04,27,05,25,1.70
2022,04,27,05,26,1.60
2022,04,27,05,27,1.70
2022,04,27,05,28,1.70
2022,04,27,05,29,1.70
2022,04,27,05,30,1.70
2022,04,27,05,31,1.70
2022,04,27,05,32,1.70
2022,04,27,05,33,1.70
2022,04,27,05,34,1.70
2022,04,27,05,35,1.80
2022,04,27,05,36,1.80
2022,04,27,05,37,1.80
2022,04,27,05,38,1.80
2022,04,27,05,39,1.90
2022,04,27,05,40,1.90
2022,04,27,05,41,1.90
2022,04,27,05,42,1.90
2022,04,27,05,43,1.90
2022,04,27,05,44,1.90
2022,04,27,05,45,1.90
2022,04,27,05,46,1.90
2022,04,27,05,47,2.00
2022,04,27,05,48,2.00
2022,04,27,05,49,1.90
2022,04,27,05,50,2.00
2022,04,27,05,51,1.90
2022,04,27,05,52,2.00
2022,04,27,05,53,2.00
2022,04,27,05,54,2.00
2022,04,27,05,55,2.00
2022,04,27,05,56,2.00
2022,04,27,05,57,2.00
2022,04,27,05,58,2.00
2022,04,27,05,59,2.00
2022,04,27,06,00,2.00
2022,04,27,06,01,2.00
2022,04,27,06,02,2.00
2022,04,27,06,03,2.00
2022,04,27,06,04,2.00
2022,04,27,06,05,2.00
2022,04,27,06,06,2.00
2022,04,27,06,07,2.00
2022,04,27,06,08,2.00
2022,04,27,06,09,2.00
2022,04,27,06,10,2.00
2022,04,27,06,11,2.00
2022,04,27,06,12,2.00
2022,04,27,06,13,2.10
2022,04,27,06,14,2.10
2022,04,27,06,15,2.10
2022,04,27,06,16,2.10
2022,04,27,06,17,2.10
2022,04,27,06,18,2.10
2022,04,27,06,19,2.10
2022,04,27,06,20,2.10
2022,04,27,06,21,2.10
2022,04,27,06,22,2.10
2022,04,27,06,23,2.10
2022,04,27,06,24,2.10
2022,04,27,06,25,2.20
2022,04,27,06,26,2.20
2022,04,27,06,27,2.20
2022,04,27,06,28,2.20
2022,04,27,06,29,2.20
2022,04,27,06,30,2.20
2022,04,27,06,31,2.20
2022,04,27,06,32,2.20
2022,04,27,06,33,2.20
2022,04,27,06,34,2.20
2022,04,27,06,35,2.20
2022,04,27,06,36,2.20
2022,04,27,06,37,2.20
2022,04,27,06,38,2.20
2022,04,27,06,39,2.20
2022,04,27,06,40,2.30
2022,04,27,06,41,2.30
2022,04,27,06,42,2.30
2022,04,27,06,43,2.30
2022,04,27,06,44,2.30
2022,04,27,06,45,2.30
2022,04,27,06,46,2.30
2022,04,27,06,47,2.30
2022,04,27,06,48,2.30
2022,04,27,06,49,2.40
2022,04,27,06,50,2.40
2022,04,27,06,51,2.40
2022,04,27,06,52,2.40
2022,04,27,06,53,2.40
2022,04,27,06,54,2.40
2022,04,27,06,55,2.40
2022,04,27,06,56,2.40
2022,04,27,06,57,2.40
2022,04,27,06,58,2.50
2022,04,27,06,59,2.50
2022,04,27,07,00,2.50
2022,04,27,07,01,2.50
2022,04,27,07,02,2.60
2022,04,27,07,03,2.60
2022,04,27,07,04,2.60
2022,04,27,07,05,2.60
2022,04,27,07,06,2.60
2022,04,27,07,07,2.60
2022,04,27,07,08,2.60
2022,04,27,07,09,2.70
2022,04,27,07,10,2.70
2022,04,27,07,11,2.70
2022,04,27,07,12,2.70
2022,04,27,07,13,2.80
2022,04,27,07,14,2.80
2022,04,27,07,15,2.80
2022,04,27,07,16,2.80
2022,04,27,07,17,2.80
2022,04,27,07,18,2.90
2022,04,27,07,19,2.90
2022,04,27,07,20,2.90
2022,04,27,07,21,2.90
2022,04,27,07,22,2.90
2022,04,27,07,23,2.90
2022,04,27,07,24,3.00
2022,04,27,07,25,3.00
2022,04,27,07,26,3.10
2022,04,27,07,27,3.10
2022,04,27,07,28,3.10
2022,04,27,07,29,3.10
2022,04,27,07,30,3.10
2022,04,27,07,31,3.10
2022,04,27,07,32,3.10
2022,04,27,07,33,3.10
2022,04,27,07,34,3.20
2022,04,27,07,35,3.20
2022,04,27,07,36,3.20
2022,04,27,07,37,3.20
2022,04,27,07,38,3.20
2022,04,27,07,39,3.20
2022,04,27,07,40,3.30
2022,04,27,07,41,3.30
2022,04,27,07,42,3.30
2022,04,27,07,43,3.30
2022,04,27,07,44,3.30
2022,04,27,07,45,3.30
2022,04,27,07,46,3.40
2022,04,27,07,47,3.40
2022,04,27,07,48,3.40
2022,04,27,07,49,3.40
2022,04,27,07,50,3.40
2022,04,27,07,51,3.40
2022,04,27,07,52,3.40
2022,04,27,07,53,3.50
2022,04,27,07,54,3.50
2022,04,27,07,55,3.50
2022,04,27,07,56,3.50
2022,04,27,07,57,3.60
2022,04,27,07,58,3.60
2022,04,27,07,59,3.60
2022,04,27,08,00,3.60
2022,04,27,08,01,3.70
2022,04,27,08,02,3.70
2022,04,27,08,03,3.70
2022,04,27,08,04,3.70
2022,04,27,08,05,3.80
2022,04,27,08,06,3.80
2022,04,27,08,07,3.80
2022,04,27,08,08,3.80
2022,04,27,08,09,3.80
2022,04,27,08,10,3.90
2022,04,27,08,11,3.90
2022,04,27,08,12,3.90
2022,04,27,08,13,3.90
2022,04,27,08,14,4.00
2022,04,27,08,15,4.00
2022,04,27,08,16,4.00
2022,04,27,08,17,4.00
2022,04,27,08,18,4.10
2022,04,27,08,19,4.10
2022,04,27,08,20,4.10
2022,04,27,08,21,4.10
2022,04,27,08,22,4.10
2022,04,27,08,23,4.20
2022,04,27,08,24,4.20
2022,04,27,08,25,4.20
2022,04,27,08,26,4.20
2022,04,27,08,27,4.20
2022,04,27,08,28,4.20
2022,04,27,08,29,4.30
2022,04,27,08,30,4.30
2022,04,27,08,31,4.30
2022,04,27,08,32,4.30
2022,04,27,08,33,4.30
2022,04,27,08,34,4.30
2022,04,27,08,35,4.30
2022,04,27,08,36,4.40
2022,04,27,08,37,4.40
2022,04,27,08,38,4.40
2022,04,27,08,39,4.40
2022,04,27,08,40,4.40
2022,04,27,08,41,4.40
2022,04,27,08,42,4.40
2022,04,27,08,43,4.40
2022,04,27,08,44,4.40
2022,04,27,08,45,4.40
2022,04,27,08,46,4.40
2022,04,27,08,47,4.40
2022,04,27,08,48,4.50
2022,04,27,08,49,4.40
2022,04,27,08,50,4.50
2022,04,27,08,51,4.50
2022,04,27,08,52,4.50
2022,04,27,08,53,4.50
2022,04,27,08,54,4.50
2022,04,27,08,55,4.50
2022,04,27,08,56,4.60
2022,04,27,08,57,4.60
2022,04,27,08,58,4.60
2022,04,27,08,59,4.60
2022,04,27,09,00,4.60
2022,04,27,09,01,4.60
2022,04,27,09,02,4.60
2022,04,27,09,03,4.60
2022,04,27,09,04,4.70
2022,04,27,09,05,4.70
2022,04,27,09,06,4.70
2022,04,27,09,07,4.70
2022,04,27,09,08,4.70
2022,04,27,09,09,4.70
2022,04,27,09,10,4.70
2022,04,27,09,11,4.80
2022,04,27,09,12,4.80
2022,04,27,09,13,4.80
2022,04,27,09,14,4.80
2022,04,27,09,15,4.90
2022,04,27,09,16,4.90
2022,04,27,09,17,4.90
2022,04,27,09,18,4.90
2022,04,27,09,19,5.00
2022,04,27,09,20,5.00
2022,04,27,09,21,5.10
2022,04,27,09,22,5.10
2022,04,27,09,23,5.10
2022,04,27,09,24,5.20
2022,04,27,09,25,5.20
2022,04,27,09,26,5.30
2022,04,27,09,27,5.30
2022,04,27,09,28,5.40
2022,04,27,09,29,5.50
2022,04,27,09,30,5.60
2022,04,27,09,31,5.60
2022,04,27,09,32,5.70
2022,04,27,09,33,5.70
2022,04,27,09,34,5.80
2022,04,27,09,35,5.80
2022,04,27,09,36,5.90
2022,04,27,09,37,5.90
2022,04,27,09,38,6.00
2022,04,27,09,39,6.00
2022,04,27,09,40,6.10
2022,04,27,09,41,6.10
2022,04,27,09,42,6.10
2022,04,27,09,43,6.20
2022,04,27,09,44,6.20
2022,04,27,09,45,6.20
2022,04,27,09,46,6.30
2022,04,27,09,47,6.30
2022,04,27,09,48,6.30
2022,04,27,09,49,6.30
2022,04,27,09,50,6.40
2022,04,27,09,51,6.40
2022,04,27,09,52,6.40
2022,04,27,09,53,6.40
2022,04,27,09,54,6.50
2022,04,27,09,55,6.50
2022,04,27,09,56,6.50
2022,04,27,09,57,6.60
2022,04,27,09,58,6.60
2022,04,27,09,59,6.60
2022,04,27,10,00,6.60
2022,04,27,10,01,6.60
2022,04,27,10,02,6.70
2022,04,27,10,03,6.70
2022,04,27,10,04,6.70
2022,04,27,10,05,6.70
2022,04,27,10,06,6.70
2022,04,27,10,07,6.70
2022,04,27,10,08,6.80
2022,04,27,10,09,6.80
2022,04,27,10,10,6.80
2022,04,27,10,11,6.80
2022,04,27,10,12,6.80
2022,04,27,10,13,6.90
2022,04,27,10,14,6.90
2022,04,27,10,15,6.90
2022,04,27,10,16,6.90
2022,04,27,10,17,6.90
2022,04,27,10,18,6.90
2022,04,27,10,19,7.00
2022,04,27,10,20,7.00
2022,04,27,10,21,7.00
2022,04,27,10,22,7.00
2022,04,27,10,23,7.00
2022,04,27,10,24,7.00
2022,04,27,10,25,7.00
2022,04,27,10,26,7.00
2022,04,27,10,27,7.00
2022,04,27,10,28,7.00
2022,04,27,10,29,7.00
2022,04,27,10,30,7.10
2022,04,27,10,31,7.10
2022,04,27,10,32,7.10
2022,04,27,10,33,7.10
2022,04,27,10,34,7.10
2022,04,27,10,35,7.10
2022,04,27,10,36,7.10
2022,04,27,10,37,7.10
2022,04,27,10,38,7.10
2022,04,27,10,39,7.10
2022,04,27,10,40,7.10
2022,04,27,10,41,7.20
2022,04,27,10,42,7.20
2022,04,27,10,43,7.20
2022,04,27,10,44,7.20
2022,04,27,10,45,7.20
2022,04,27,10,46,7.20
2022,04,27,10,47,7.30
2022,04,27,10,48,7.30
2022,04,27,10,49,7.30
2022,04,27,10,50,7.40
2022,04,27,10,51,7.50
2022,04,27,10,52,7.60
2022,04,27,10,53,7.70
2022,04,27,10,54,7.80
2022,04,27,10,55,7.90
2022,04,27,10,56,7.90
2022,04,27,10,57,8.00
2022,04,27,10,58,8.10
2022,04,27,10,59,8.10
2022,04,27,11,00,8.20
2022,04,27,11,01,8.20
2022,04,27,11,02,8.20
2022,04,27,11,03,8.30
2022,04,27,11,04,8.40
2022,04,27,11,05,8.40
2022,04,27,11,06,8.50
2022,04,27,11,07,8.50
2022,04,27,11,08,8.50
2022,04,27,11,09,8.60
2022,04,27,11,10,8.60
2022,04,27,11,11,8.70
2022,04,27,11,12,8.70
2022,04,27,11,13,8.70
2022,04,27,11,14,8.70
2022,04,27,11,15,8.80
2022,04,27,11,16,8.80
2022,04,27,11,17,8.80
2022,04,27,11,18,8.80
2022,04,27,11,19,8.80
2022,04,27,11,20,8.80
2022,04,27,11,21,8.90
2022,04,27,11,22,8.90
2022,04,27,11,23,8.90
2022,04,27,11,24,8.90
2022,04,27,11,25,8.90
2022,04,27,11,26,8.90
2022,04,27,11,27,8.90
2022,04,27,11,28,8.90
2022,04,27,11,29,8.90
2022,04,27,11,30,8.90
2022,04,27,11,31,8.90
2022,04,27,11,32,8.90
2022,04,27,11,33,8.90
2022,04,27,11,34,8.90
2022,04,27,11,35,8.90
2022,04,27,11,36,8.90
2022,04,27,11,37,8.90
2022,04,27,11,38,8.90
2022,04,27,11,39,8.90
2022,04,27,11,40,8.90
2022,04,27,11,41,8.90
2022,04,27,11,42,8.90
2022,04,27,11,43,8.80
2022,04,27,11,44,8.80
2022,04,27,11,45,8.80
2022,04,27,11,46,8.70
2022,04,27,11,47,8.70
2022,04,27,11,48,8.70
2022,04,27,11,49,8.70
2022,04,27,11,50,8.70
2022,04,27,11,51,8.70
2022,04,27,11,52,8.60
2022,04,27,11,53,8.60
2022,04,27,11,54,8.60
2022,04,27,11,55,8.50
2022,04,27,11,56,8.50
2022,04,27,11,57,8.50
2022,04,27,11,58,8.40
2022,04,27,11,59,8.40
2022,04,27,12,00,8.40
2022,04,27,12,01,8.30
2022,04,27,12,02,8.30
2022,04,27,12,03,8.20
2022,04,27,12,04,8.20
2022,04,27,12,05,8.10
2022,04,27,12,06,8.10
2022,04,27,12,07,8.00
2022,04,27,12,08,7.90
2022,04,27,12,09,7.90
2022,04,27,12,10,7.90
2022,04,27,12,11,7.80
2022,04,27,12,12,7.80
2022,04,27,12,13,7.80
2022,04,27,12,14,7.80
2022,04,27,12,15,7.80
2022,04,27,12,16,7.80
2022,04,27,12,17,7.80
2022,04,27,12,18,7.80
2022,04,27,12,19,7.80
2022,04,27,12,20,7.80
2022,04,27,12,21,7.80
2022,04,27,12,22,7.80
2022,04,27,12,23,7.90
2022,04,27,12,24,7.90
2022,04,27,12,25,8.00
2022,04,27,12,26,8.10
2022,04,27,12,27,8.20
2022,04,27,12,28,8.30
2022,04,27,12,29,8.40
2022,04,27,12,30,8.50
2022,04,27,12,31,8.60
2022,04,27,12,32,8.70
2022,04,27,12,33,8.80
2022,04,27,12,34,8.90
2022,04,27,12,35,9.00
2022,04,27,12,36,9.00
2022,04,27,12,37,9.10
2022,04,27,12,38,9.10
2022,04,27,12,39,9.10
2022,04,27,12,40,9.10
2022,04,27,12,41,9.10
2022,04,27,12,42,9.10
2022,04,27,12,43,9.10
2022,04,27,12,44,9.10
2022,04,27,12,45,9.10
2022,04,27,12,46,9.10
2022,04,27,12,47,9.10
2022,04,27,12,48,9.10
2022,04,27,12,49,9.10
2022,04,27,12,50,9.10
2022,04,27,12,51,9.10
2022,04,27,12,52,9.10
2022,04,27,12,53,9.10
2022,04,27,12,54,9.10
2022,04,27,12,55,9.10
2022,04,27,12,56,9.00
2022,04,27,12,57,9.00
2022,04,27,12,58,9.00
2022,04,27,12,59,9.00
2022,04,27,13,00,9.00
2022,04,27,13,01,9.00
2022,04,27,13,02,9.00
2022,04,27,13,03,9.00
2022,04,27,13,04,9.00
2022,04,27,13,05,9.00
2022,04,27,13,06,9.00
2022,04,27,13,07,9.00
2022,04,27,13,08,9.10
2022,04,27,13,09,9.10
2022,04,27,13,10,9.10
2022,04,27,13,11,9.10
2022,04,27,13,12,9.00
2022,04,27,13,13,9.10
2022,04,27,13,14,9.10
2022,04,27,13,15,9.10
2022,04,27,13,16,9.10
2022,04,27,13,17,9.10
2022,04,27,13,18,9.10
2022,04,27,13,19,9.10
2022,04,27,13,20,9.10
2022,04,27,13,21,9.10
2022,04,27,13,22,9.10
2022,04,27,13,23,9.20
2022,04,27,13,24,9.20
2022,04,27,13,25,9.20
2022,04,27,13,26,9.20
2022,04,27,13,27,9.20
2022,04,27,13,28,9.30
2022,04,27,13,29,9.30
2022,04,27,13,30,9.30
2022,04,27,13,31,9.30
2022,04,27,13,32,9.30
2022,04,27,13,33,9.30
2022,04,27,13,34,9.30
2022,04,27,13,35,9.30
2022,04,27,13,36,9.40
2022,04,27,13,37,9.30
2022,04,27,13,38,9.30
2022,04,27,13,39,9.30
2022,04,27,13,40,9.30
2022,04,27,13,41,9.20
2022,04,27,13,42,9.20
2022,04,27,13,43,9.20
2022,04,27,13,44,9.20
2022,04,27,13,45,9.20
2022,04,27,13,46,9.10
2022,04,27,13,47,9.10
2022,04,27,13,48,9.10
2022,04,27,13,49,9.10
2022,04,27,13,50,9.10
2022,04,27,13,51,9.10
2022,04,27,13,52,9.10
2022,04,27,13,53,9.10
2022,04,27,13,54,9.10
2022,04,27,13,55,9.10
2022,04,27,13,56,9.10
2022,04,27,13,57,9.10
2022,04,27,13,58,9.00
2022,04,27,13,59,9.00
2022,04,27,14,00,8.90
2022,04,27,14,01,8.90
2022,04,27,14,02,8.80
2022,04,27,14,03,8.80
2022,04,27,14,04,8.80
2022,04,27,14,05,8.80
2022,04,27,14,06,8.70
2022,04,27,14,07,8.70
2022,04,27,14,08,8.60
2022,04,27,14,09,8.60
2022,04,27,14,10,8.50
2022,04,27,14,11,8.50
2022,04,27,14,12,8.40
2022,04,27,14,13,8.40
2022,04,27,14,14,8.40
2022,04,27,14,15,8.40
2022,04,27,14,16,8.40
2022,04,27,14,17,8.40
2022,04,27,14,18,8.40
2022,04,27,14,19,8.40
2022,04,27,14,20,8.40
2022,04,27,14,21,8.40
2022,04,27,14,22,8.50
2022,04,27,14,23,8.50
2022,04,27,14,24,8.50
2022,04,27,14,25,8.50
2022,04,27,14,26,8.50
2022,04,27,14,27,8.50
2022,04,27,14,28,8.50
2022,04,27,14,29,8.60
2022,04,27,14,30,8.60
2022,04,27,14,31,8.60
2022,04,27,14,32,8.60
2022,04,27,14,33,8.60
2022,04,27,14,34,8.60
2022,04,27,14,35,8.60
2022,04,27,14,36,8.60
2022,04,27,14,37,8.60
2022,04,27,14,38,8.60
2022,04,27,14,39,8.60
2022,04,27,14,40,8.60
2022,04,27,14,41,8.60
2022,04,27,14,42,8.60
2022,04,27,14,43,8.60
2022,04,27,14,44,8.60
2022,04,27,14,45,8.60
2022,04,27,14,46,8.60
2022,04,27,14,47,8.60
2022,04,27,14,48,8.60
2022,04,27,14,49,8.60
2022,04,27,14,50,8.60
2022,04,27,14,51,8.60
2022,04,27,14,52,8.60
2022,04,27,14,53,8.60
2022,04,27,14,54,8.60
2022,04,27,14,55,8.60
2022,04,27,14,56,8.60
2022,04,27,14,57,8.60
2022,04,27,14,58,8.60
2022,04,27,14,59,8.60
2022,04,27,15,00,8.60
2022,04,27,15,01,8.60
2022,04,27,15,02,8.60
2022,04,27,15,03,8.60
2022,04,27,15,04,8.60
2022,04,27,15,05,8.60
2022,04,27,15,06,8.60
2022,04,27,15,07,8.70
2022,04,27,15,08,8.70
2022,04,27,15,09,8.60
2022,04,27,15,10,8.70
2022,04,27,15,11,8.60
2022,04,27,15,12,8.60
2022,04,27,15,13,8.60
2022,04,27,15,14,8.60
2022,04,27,15,15,8.60
2022,04,27,15,16,8.60
2022,04,27,15,17,8.60
2022,04,27,15,18,8.60
2022,04,27,15,19,8.60
2022,04,27,15,20,8.60
2022,04,27,15,21,8.60
2022,04,27,15,22,8.50
2022,04,27,15,23,8.50
2022,04,27,15,24,8.60
2022,04,27,15,25,8.60
2022,04,27,15,26,8.60
2022,04,27,15,27,8.60
2022,04,27,15,28,8.60
2022,04,27,15,29,8.60
2022,04,27,15,30,8.60
2022,04,27,15,31,8.60
2022,04,27,15,32,8.60
2022,04,27,15,33,8.60
2022,04,27,15,34,8.60
2022,04,27,15,35,8.60
2022,04,27,15,36,8.60
2022,04,27,15,37,8.60
2022,04,27,15,38,8.60
2022,04,27,15,39,8.60
2022,04,27,15,40,8.60
2022,04,27,15,41,8.50
2022,04,27,15,42,8.50
2022,04,27,15,43,8.50
2022,04,27,15,44,8.50
2022,04,27,15,45,8.50
2022,04,27,15,46,8.50
2022,04,27,15,47,8.40
2022,04,27,15,48,8.30
2022,04,27,15,49,8.20
2022,04,27,15,50,8.10
2022,04,27,15,51,8.00
2022,04,27,15,52,7.90
2022,04,27,15,53,7.70
2022,04,27,15,54,7.60
2022,04,27,15,55,7.60
2022,04,27,15,56,7.50
2022,04,27,15,57,7.40
2022,04,27,15,58,7.40
2022,04,27,15,59,7.30
2022,04,27,16,00,7.30
2022,04,27,16,01,7.30
2022,04,27,16,02,7.30
2022,04,27,16,03,7.20
2022,04,27,16,04,7.20
2022,04,27,16,05,7.20
2022,04,27,16,06,7.20
2022,04,27,16,07,7.20
2022,04,27,16,08,7.20
2022,04,27,16,09,7.10
2022,04,27,16,10,7.10
2022,04,27,16,11,7.10
2022,04,27,16,12,7.10
2022,04,27,16,13,7.10
2022,04,27,16,14,7.00
2022,04,27,16,15,7.00
2022,04,27,16,16,7.00
2022,04,27,16,17,6.90
2022,04,27,16,18,6.90
2022,04,27,16,19,6.90
2022,04,27,16,20,6.90
2022,04,27,16,21,6.80
2022,04,27,16,22,6.80
2022,04,27,16,23,6.80
2022,04,27,16,24,6.80
2022,04,27,16,25,6.80
2022,04,27,16,26,6.80
2022,04,27,16,27,6.80
2022,04,27,16,28,6.80
2022,04,27,16,29,6.80
2022,04,27,16,30,6.80
2022,04,27,16,31,6.80
2022,04,27,16,32,6.80
2022,04,27,16,33,6.80
2022,04,27,16,34,6.80
2022,04,27,16,35,6.80
2022,04,27,16,36,6.80
2022,04,27,16,37,6.90
2022,04,27,16,38,6.90
2022,04,27,16,39,6.90
2022,04,27,16,40,7.00
2022,04,27,16,41,7.10
2022,04,27,16,42,7.20
2022,04,27,16,43,7.20
2022,04,27,16,44,7.30
2022,04,27,16,45,7.30
2022,04,27,16,46,7.40
2022,04,27,16,47,7.40
2022,04,27,16,48,7.50
2022,04,27,16,49,7.60
2022,04,27,16,50,7.70
2022,04,27,16,51,7.80
2022,04,27,16,52,7.90
2022,04,27,16,53,8.00
2022,04,27,16,54,8.00
2022,04,27,16,55,8.00
2022,04,27,16,56,8.00
2022,04,27,16,57,8.10
2022,04,27,16,58,8.00
2022,04,27,16,59,8.00
2022,04,27,17,00,7.90
2022,04,27,17,01,7.90
2022,04,27,17,02,7.90
2022,04,27,17,03,7.90
2022,04,27,17,04,7.80
2022,04,27,17,05,7.80
2022,04,27,17,06,7.80
2022,04,27,17,07,7.80
2022,04,27,17,08,7.80
2022,04,27,17,09,7.70
2022,04,27,17,10,7.70
2022,04,27,17,11,7.70
2022,04,27,17,12,7.70
2022,04,27,17,13,7.70
2022,04,27,17,14,7.70
2022,04,27,17,15,7.60
2022,04,27,17,16,7.60
2022,04,27,17,17,7.60
2022,04,27,17,18,7.60
2022,04,27,17,19,7.60
2022,04,27,17,20,7.60
2022,04,27,17,21,7.60
2022,04,27,17,22,7.50
2022,04,27,17,23,7.60
2022,04,27,17,24,7.50
2022,04,27,17,25,7.50
2022,04,27,17,26,7.50
2022,04,27,17,27,7.40
2022,04,27,17,28,7.40
2022,04,27,17,29,7.40
2022,04,27,17,30,7.40
2022,04,27,17,31,7.40
2022,04,27,17,32,7.40
2022,04,27,17,33,7.40
2022,04,27,17,34,7.40
2022,04,27,17,35,7.30
2022,04,27,17,36,7.30
2022,04,27,17,37,7.30
2022,04,27,17,38,7.30
2022,04,27,17,39,7.30
2022,04,27,17,40,7.30
2022,04,27,17,41,7.30
2022,04,27,17,42,7.20
2022,04,27,17,43,7.20
2022,04,27,17,44,7.10
2022,04,27,17,45,7.10
2022,04,27,17,46,7.10
2022,04,27,17,47,7.00
2022,04,27,17,48,7.00
2022,04,27,17,49,7.00
2022,04,27,17,50,7.00
2022,04,27,17,51,7.00
2022,04,27,17,52,7.00
2022,04,27,17,53,7.00
2022,04,27,17,54,7.00
2022,04,27,17,55,7.00
2022,04,27,17,56,7.00
2022,04,27,17,57,7.00
2022,04,27,17,58,7.00
2022,04,27,17,59,7.00
2022,04,27,18,00,7.00
2022,04,27,18,01,7.00
2022,04,27,18,02,7.00
2022,04,27,18,03,7.00
2022,04,27,18,04,7.00
2022,04,27,18,05,7.00
2022,04,27,18,06,7.00